Lid_Strength_Index
4 4 3 3 3 2 2 2 1 1 1 1 0 0 0 -0 -1 0 0 -0 -0 0 0 -0 -1 -1 -1 -1 -1 -1 -1 -0 -0
4 4 3 3 2 2 2 2 1 1 1 1 0 0 0 -0 -0 -0 -0 -1 -1 -0 -1 -1 -1 -1 -1 -1 -1 -1 -1 -0 -0
5 4 3 3 2 2 2 2 2 1 1 2 0 0 0 0 -0 -0 -0 -0 -0 -1 -1 -1 -1 -1 -1 -1 -1 -1 -1 -1 -1
4 4 4 3 2 2 1 1 2 1 1 1 1 0 0 -0 0 -0 -0 -0 -0 -0 -1 -1 -1 -1 -1 -1 -1 -1 -1 -1 -1
4 4 3 3 2 2 2 2 1 1 1 1 1 0 0 0 -0 -0 0 0 -0 -1 -0 -1 -1 -1 -1 -1 -1 -1 -0 -0 -0
4 4 3 3 3 3 2 2 2 2 2 1 0 0 0 0 0 0 0 -0 -0 -1 -1 -1 -1 -1 -0 -0 -1 -1 -1 -1 -0
4 4 4 3 3 3 2 2 2 1 1 1 1 1 0 1 1 1 0 -0 -0 -0 -1 -0 -0 -1 -1 -0 -1 -1 -1 -0 -0
5 4 4 4 3 3 2 2 2 1 1 1 0 1 1 1 0 -0 -0 0 -0 -0 -0 -0 -1 -0 -0 -0 -0 -0 -0 -0 -0
5 5 4 3 3 3 3 2 2 2 1 1 0 1 1 0 0 0 0 0 0 0 0 -0 -0 -0 -0 0 0 2 2 0 -0
4 4 4 3 3 3 2 2 2 2 1 1 1 1 1 1 0 1 0 0 1 1 1 -0 0 0 0 0 -0 3 4 2 -0
4 3 3 3 2 2 2 1 1 1 1 1 1 1 1 1 1 1 0 0 1 0 0 0 0 0 -0 0 0 4 6 4 -0
3 3 3 2 2 1 1 1 1 1 1 1 1 1 1 1 1 1 1 1 1 0 0 0 0 0 0 0 0 4 5 2 0
2 2 2 2 2 2 1 1 1 1 2 1 2 1 1 0 0 0 1 0 0 -0 0 0 0 0 -0 2 0 3 6 3 0
2 2 2 2 2 2 1 1 1 2 1 1 0 0 0 0 -0 0 -0 -0 -0 0 0 0 0 1 0 0 0 0 6 6 0
3 3 2 2 2 2 1 1 1 1 1 0 0 0 0 0 0 0 0 0 0 0 0 1 1 1 1 1 0 4 5 6 7
3 2 2 2 2 2 1 1 1 1 1 0 0 1 1 0 0 0 0 0 1 1 1 1 1 1 1 1 1 0 5 6 7
3 3 2 2 2 2 2 1 1 1 1 0 1 1 1 1 1 1 0 1 1 1 1 1 1 2 2 1 1 1 0 0 1
3 2 2 2 2 2 2 1 1 0 0 0 1 1 1 1 1 1 1 1 1 1 -0 1 2 1 1 2 2 1 4 5 2
3 3 2 2 2 2 2 1 1 0 0 0 1 1 1 1 1 1 1 1 1 8 8 8 10 11 7 1 6 9 10 11 11
4 2 2 2 2 2 1 1 1 0 0 0 1 1 1 1 2 1 1 1 2 2 4 10 11 10 10 11 10 11 12 13 14